| time (UTC) | temp F | wind direction | speed knots | gust knots | rain 1hr in | rain 24hr in | rain mn in | humidity % | barometer mb |
| 20260505184224 | 59 | 166 | 2.6 | 3.5 | 0.00 | 0.00 | 0.00 | 48 | 1231.5 |
| 20260505183720 | 59 | 65 | 1.7 | 3.5 | 0.00 | 0.00 | 0.00 | 48 | 1231.7 |
| 20260505183218 | 59 | 29 | 0.9 | 3.5 | 0.00 | 0.00 | 0.00 | 50 | 1231.7 |
| 20260505182714 | 59 | 46 | 0.9 | 2.6 | 0.00 | 0.00 | 0.00 | 48 | 1231.3 |
| 20260505182211 | 58 | 35 | 1.7 | 2.6 | 0.00 | 0.00 | 0.00 | 51 | 1231.5 |
| 20260505181708 | 58 | 112 | 1.7 | 2.6 | 0.00 | 0.00 | 0.00 | 52 | 1231.8 |
| 20260505181206 | 58 | 351 | 2.6 | 3.5 | 0.00 | 0.00 | 0.00 | 54 | 1231.8 |
| 20260505180701 | 57 | 344 | 1.7 | 3.5 | 0.00 | 0.00 | 0.00 | 58 | 1231.4 |
| 20260505180159 | 57 | 97 | 0.9 | 4.3 | 0.00 | 0.00 | 0.00 | 61 | 1231.7 |
| 20260505175654 | 60 | 88 | 1.7 | 5.2 | 0.00 | 0.00 | 0.00 | 53 | 1231.7 |
| 20260505175151 | 60 | 157 | 1.7 | 2.6 | 0.00 | 0.00 | 0.00 | 43 | 1231.4 |
| 20260505174648 | 60 | 47 | 1.7 | 1.7 | 0.00 | 0.00 | 0.00 | 42 | 1231.3 |
| 20260505174144 | 60 | 118 | 1.7 | 1.7 | 0.00 | 0.00 | 0.00 | 42 | 1231.3 |
| 20260505173641 | 61 | 57 | 0.9 | 6.1 | 0.00 | 0.00 | 0.00 | 41 | 1231.3 |
| 20260505173137 | 62 | 22 | 1.7 | 3.5 | 0.00 | 0.00 | 0.00 | 40 | 1231.2 |
| 20260505172635 | 61 | 356 | 0.0 | 3.5 | 0.00 | 0.00 | 0.00 | 41 | 1231.4 |
| 20260505172132 | 59 | 33 | 1.7 | 2.6 | 0.00 | 0.00 | 0.00 | 44 | 1231.1 |
| 20260505171626 | 59 | 344 | 3.5 | 3.5 | 0.00 | 0.00 | 0.00 | 44 | 1231.2 |
| 20260505171124 | 58 | 75 | 0.9 | 2.6 | 0.00 | 0.00 | 0.00 | 44 | 1231.3 |
| 20260505170621 | 57 | 70 | 2.6 | 2.6 | 0.00 | 0.00 | 0.00 | 45 | 1231.4 |
| 20260505170117 | 57 | 53 | 3.5 | 3.5 | 0.00 | 0.00 | 0.00 | 45 | 1231.5 |
| 20260505165612 | 57 | 84 | 1.7 | 3.5 | 0.00 | 0.00 | 0.00 | 44 | 1231.5 |
| 20260505165108 | 58 | 36 | 2.6 | 3.5 | 0.00 | 0.00 | 0.00 | 44 | 1231.7 |
| 20260505164604 | 58 | 6 | 1.7 | 5.2 | 0.00 | 0.00 | 0.00 | 44 | 1231.4 |
| 20260505164102 | 57 | 50 | 1.7 | 9.6 | 0.00 | 0.00 | 0.00 | 45 | 1231.2 |
| 20260505163600 | 57 | 344 | 2.6 | 5.2 | 0.00 | 0.00 | 0.00 | 45 | 1231.3 |
| 20260505163057 | 56 | 55 | 2.6 | 3.5 | 0.00 | 0.00 | 0.00 | 45 | 1231.4 |
| 20260505162555 | 56 | 331 | 4.3 | 7.8 | 0.00 | 0.00 | 0.00 | 45 | 1231.5 |
| 20260505162052 | 56 | 16 | 2.6 | 4.3 | 0.00 | 0.00 | 0.00 | 47 | 1231.4 |
| 20260505161549 | 55 | 7 | 3.5 | 4.3 | 0.00 | 0.00 | 0.00 | 48 | 1231.5 |
| 20260505161047 | 55 | 323 | 7.8 | 7.8 | 0.00 | 0.00 | 0.00 | 48 | 1231.7 |
| 20260505160544 | 54 | 74 | 2.6 | 6.1 | 0.00 | 0.00 | 0.00 | 51 | 1231.7 |
| 20260505153021 | 53 | 15 | 4.3 | 7.0 | 0.00 | 0.00 | 0.00 | 53 | 1232.1 |
| 20260505152518 | 53 | 349 | 4.3 | 11.3 | 0.00 | 0.00 | 0.00 | 52 | 1232.2 |
| 20260505152013 | 54 | 46 | 3.5 | 9.6 | 0.00 | 0.00 | 0.00 | 56 | 1232.4 |
| 20260505151509 | 54 | 349 | 3.5 | 10.4 | 0.00 | 0.00 | 0.00 | 56 | 1232.2 |
| 20260505151006 | 53 | 14 | 3.5 | 7.0 | 0.00 | 0.00 | 0.00 | 59 | 1232.2 |
| 20260505150503 | 53 | 40 | 2.6 | 8.7 | 0.00 | 0.00 | 0.00 | 60 | 1232.2 |
| 20260505140433 | 54 | 65 | 3.5 | 5.2 | 0.00 | 0.00 | 0.00 | 58 | 1232.2 |
| 20260505124846 | 57 | 51 | 1.7 | 1.7 | 0.00 | 0.00 | 0.00 | 39 | 1231.2 |
| 20260505124343 | 57 | 1 | 1.7 | 2.6 | 0.00 | 0.00 | 0.00 | 38 | 1231.1 |
| 20260505123839 | 57 | 35 | 0.0 | 2.6 | 0.00 | 0.00 | 0.00 | 38 | 1231.1 |
| 20260505123336 | 57 | 47 | 1.7 | 1.7 | 0.00 | 0.00 | 0.00 | 38 | 1231.2 |
| 20260505122832 | 57 | 326 | 1.7 | 1.7 | 0.00 | 0.00 | 0.00 | 38 | 1231.4 |
| 20260505122329 | 57 | 11 | 1.7 | 2.6 | 0.00 | 0.00 | 0.00 | 37 | 1231.2 |
| 20260505121826 | 57 | 93 | 1.7 | 2.6 | 0.00 | 0.00 | 0.00 | 37 | 1231.2 |
| 20260505121323 | 57 | 84 | 2.6 | 2.6 | 0.00 | 0.00 | 0.00 | 37 | 1231.2 |
| 20260505120819 | 57 | 93 | 1.7 | 2.6 | 0.00 | 0.00 | 0.00 | 37 | 1231.1 |
| 20260505120315 | 57 | 57 | 0.9 | 2.6 | 0.00 | 0.00 | 0.00 | 37 | 1231.3 |
| 20260505115814 | 57 | 51 | 1.7 | 2.6 | 0.00 | 0.00 | 0.00 | 37 | 1231.1 |
| 20260505115312 | 57 | 32 | 1.7 | 1.7 | 0.00 | 0.00 | 0.00 | 37 | 1231.0 |
| 20260505114809 | 57 | 0 | 1.7 | 2.6 | 0.00 | 0.00 | 0.00 | 37 | 1231.0 |
| 20260505114305 | 57 | 60 | 1.7 | 3.5 | 0.00 | 0.00 | 0.00 | 37 | 1231.2 |
| 20260505113802 | 57 | 82 | 0.9 | 2.6 | 0.00 | 0.00 | 0.00 | 37 | 1231.0 |
| 20260505113258 | 57 | 4 | 1.7 | 3.5 | 0.00 | 0.00 | 0.00 | 37 | 1231.0 |
| 20260505112754 | 57 | 42 | 0.9 | 3.5 | 0.00 | 0.00 | 0.00 | 37 | 1231.0 |
| 20260505112252 | 57 | 55 | 1.7 | 2.6 | 0.00 | 0.00 | 0.00 | 37 | 1231.0 |
| 20260505111752 | 57 | 44 | 0.9 | 3.5 | 0.00 | 0.00 | 0.00 | 36 | 1230.7 |
| 20260505111248 | 57 | 38 | 1.7 | 2.6 | 0.00 | 0.00 | 0.00 | 36 | 1230.6 |
| 20260505110744 | 57 | 76 | 2.6 | 2.6 | 0.00 | 0.00 | 0.00 | 36 | 1230.7 |
| 20260505110243 | 58 | 76 | 1.7 | 2.6 | 0.00 | 0.00 | 0.00 | 36 | 1231.2 |
| 20260505102218 | 57 | 79 | 0.9 | 1.7 | 0.00 | 0.00 | 0.00 | 34 | 1231.3 |
| 20260505101716 | 58 | 68 | 1.7 | 1.7 | 0.00 | 0.00 | 0.00 | 34 | 1231.3 |
| 20260505101212 | 58 | 93 | 0.9 | 1.7 | 0.00 | 0.00 | 0.00 | 34 | 1231.2 |
| 20260505100708 | 58 | 82 | 0.9 | 1.7 | 0.00 | 0.00 | 0.00 | 34 | 1231.3 |
| 20260505100206 | 58 | 97 | 1.7 | 1.7 | 0.00 | 0.00 | 0.00 | 33 | 1231.2 |
| 20260505095701 | 58 | 82 | 1.7 | 1.7 | 0.00 | 0.00 | 0.00 | 33 | 1230.8 |
| 20260505095159 | 58 | 103 | 0.9 | 1.7 | 0.00 | 0.00 | 0.00 | 33 | 1231.2 |
| 20260505094654 | 58 | 73 | 1.7 | 1.7 | 0.00 | 0.00 | 0.00 | 33 | 1231.1 |
| 20260505094151 | 58 | 72 | 1.7 | 2.6 | 0.00 | 0.00 | 0.00 | 33 | 1231.0 |
| 20260505093648 | 58 | 61 | 1.7 | 1.7 | 0.00 | 0.00 | 0.00 | 34 | 1231.2 |
| 20260505093145 | 58 | 86 | 0.9 | 1.7 | 0.00 | 0.00 | 0.00 | 34 | 1230.8 |
| 20260505092642 | 58 | 117 | 1.7 | 1.7 | 0.00 | 0.00 | 0.00 | 34 | 1230.8 |
| 20260505092141 | 58 | 166 | 1.7 | 2.6 | 0.00 | 0.00 | 0.00 | 34 | 1231.1 |
| 20260505091637 | 58 | 122 | 1.7 | 2.6 | 0.00 | 0.00 | 0.00 | 34 | 1231.2 |
| 20260505091135 | 58 | 133 | 1.7 | 2.6 | 0.00 | 0.00 | 0.00 | 34 | 1231.1 |
| 20260505090633 | 58 | 89 | 0.9 | 1.7 | 0.00 | 0.00 | 0.00 | 34 | 1231.2 |
| 20260505090131 | 59 | 107 | 0.9 | 1.7 | 0.00 | 0.00 | 0.00 | 33 | 1231.2 |
| 20260505085628 | 59 | 44 | 0.0 | 1.7 | 0.00 | 0.00 | 0.00 | 33 | 1231.2 |
| 20260505085126 | 59 | 99 | 0.0 | 1.7 | 0.00 | 0.00 | 0.00 | 33 | 1231.4 |
| 20260505084623 | 59 | 111 | 0.0 | 1.7 | 0.00 | 0.00 | 0.00 | 33 | 1231.5 |
| 20260505084122 | 59 | 99 | 0.9 | 1.7 | 0.00 | 0.00 | 0.00 | 32 | 1231.4 |
| 20260505083619 | 59 | 101 | 0.9 | 1.7 | 0.00 | 0.00 | 0.00 | 32 | 1231.4 |
| 20260505083115 | 60 | 59 | 0.9 | 1.7 | 0.00 | 0.00 | 0.00 | 32 | 1231.4 |
| 20260505082611 | 60 | 17 | 0.9 | 1.7 | 0.00 | 0.00 | 0.00 | 32 | 1231.5 |
| 20260505082108 | 60 | 20 | 1.7 | 2.6 | 0.00 | 0.00 | 0.00 | 31 | 1231.5 |
| 20260505081604 | 61 | 9 | 2.6 | 2.6 | 0.00 | 0.00 | 0.00 | 31 | 1231.7 |
| 20260505081102 | 61 | 294 | 1.7 | 3.5 | 0.00 | 0.00 | 0.00 | 31 | 1231.7 |
| 20260505080558 | 61 | 324 | 0.0 | 3.5 | 0.00 | 0.00 | 0.00 | 30 | 1231.8 |
| 20260505080055 | 61 | 355 | 1.7 | 1.7 | 0.00 | 0.00 | 0.00 | 30 | 1231.9 |
| 20260505075550 | 61 | 40 | 0.9 | 1.7 | 0.00 | 0.00 | 0.00 | 30 | 1231.9 |
| 20260505075047 | 61 | 63 | 1.7 | 3.5 | 0.00 | 0.00 | 0.00 | 30 | 1231.9 |
| 20260505074544 | 62 | 110 | 1.7 | 3.5 | 0.00 | 0.00 | 0.00 | 29 | 1232.1 |
| 20260505074042 | 61 | 42 | 3.5 | 3.5 | 0.00 | 0.00 | 0.00 | 29 | 1231.9 |
| 20260505073539 | 62 | 106 | 0.0 | 2.6 | 0.00 | 0.00 | 0.00 | 29 | 1232.0 |
| 20260505073038 | 62 | 342 | 3.5 | 3.5 | 0.00 | 0.00 | 0.00 | 30 | 1231.8 |
| 20260505072532 | 62 | 89 | 1.7 | 1.7 | 0.00 | 0.00 | 0.00 | 30 | 1231.8 |
| 20260505072029 | 62 | 44 | 0.0 | 2.6 | 0.00 | 0.00 | 0.00 | 30 | 1231.5 |
| 20260505071525 | 62 | 7 | 1.7 | 1.7 | 0.00 | 0.00 | 0.00 | 30 | 1231.7 |
| 20260505071023 | 62 | 60 | 1.7 | 1.7 | 0.00 | 0.00 | 0.00 | 29 | 1231.7 |
| 20260505070520 | 62 | 83 | 1.7 | 1.7 | 0.00 | 0.00 | 0.00 | 29 | 1231.5 |
| 20260505070016 | 62 | 32 | 0.9 | 2.6 | 0.00 | 0.00 | 0.00 | 29 | 1231.7 |
| 20260505065512 | 62 | 88 | 0.0 | 1.7 | 0.00 | 0.00 | 0.00 | 28 | 1231.3 |
| 20260505065009 | 63 | 18 | 1.7 | 2.6 | 0.00 | 0.00 | 0.00 | 28 | 1231.3 |
| 20260505064506 | 63 | 54 | 0.9 | 3.5 | 0.00 | 0.00 | 0.00 | 28 | 1231.2 |
| 20260505064004 | 63 | 319 | 0.0 | 3.5 | 0.00 | 0.00 | 0.00 | 28 | 1231.3 |
| 20260505063501 | 63 | 62 | 1.7 | 3.5 | 0.00 | 0.00 | 0.00 | 28 | 1231.3 |
| 20260505062956 | 63 | 43 | 1.7 | 2.6 | 0.00 | 0.00 | 0.00 | 27 | 1231.2 |
| 20260505062454 | 63 | 117 | 0.0 | 2.6 | 0.00 | 0.00 | 0.00 | 27 | 1231.3 |
| 20260505061950 | 63 | 29 | 1.7 | 3.5 | 0.00 | 0.00 | 0.00 | 26 | 1231.1 |
| 20260505061449 | 64 | 79 | 1.7 | 3.5 | 0.00 | 0.00 | 0.00 | 26 | 1231.3 |
| 20260505060946 | 64 | 10 | 0.0 | 2.6 | 0.00 | 0.00 | 0.00 | 26 | 1231.3 |
| 20260505060443 | 64 | 358 | 2.6 | 3.5 | 0.00 | 0.00 | 0.00 | 25 | 1231.2 |
| 20260505055939 | 64 | 337 | 0.0 | 3.5 | 0.00 | 0.00 | 0.00 | 25 | 1231.2 |
| 20260505055435 | 64 | 4 | 0.9 | 2.6 | 0.00 | 0.00 | 0.00 | 25 | 1231.2 |
| 20260505054932 | 64 | 16 | 1.7 | 3.5 | 0.00 | 0.00 | 0.00 | 25 | 1231.3 |
| 20260505054430 | 64 | 34 | 0.9 | 2.6 | 0.00 | 0.00 | 0.00 | 25 | 1231.3 |
| 20260505053927 | 64 | 38 | 0.9 | 3.5 | 0.00 | 0.00 | 0.00 | 25 | 1231.3 |
| 20260505053424 | 65 | 8 | 1.7 | 3.5 | 0.00 | 0.00 | 0.00 | 25 | 1231.1 |
| 20260505052921 | 65 | 49 | 0.9 | 2.6 | 0.00 | 0.00 | 0.00 | 25 | 1231.2 |
| 20260505052418 | 65 | 315 | 2.6 | 3.5 | 0.00 | 0.00 | 0.00 | 24 | 1231.0 |
| 20260505051915 | 65 | 12 | 1.7 | 2.6 | 0.00 | 0.00 | 0.00 | 24 | 1231.2 |
| 20260505051412 | 65 | 60 | 1.7 | 2.6 | 0.00 | 0.00 | 0.00 | 24 | 1231.0 |
| 20260505050910 | 65 | 31 | 0.0 | 1.7 | 0.00 | 0.00 | 0.00 | 24 | 1231.0 |
| 20260505050409 | 66 | 16 | 1.7 | 1.7 | 0.00 | 0.00 | 0.00 | 24 | 1231.0 |
| 20260505041336 | 66 | 55 | 0.0 | 1.7 | 0.00 | 0.00 | 0.00 | 24 | 1230.8 |
| 20260505040833 | 67 | 35 | 0.0 | 1.7 | 0.00 | 0.00 | 0.00 | 24 | 1230.7 |
| 20260505040331 | 67 | 51 | 0.9 | 1.7 | 0.00 | 0.00 | 0.00 | 24 | 1230.7 |
| 20260505035827 | 67 | 218 | 0.0 | 1.7 | 0.00 | 0.00 | 0.00 | 24 | 1230.7 |
| 20260505035323 | 67 | 75 | 0.0 | 1.7 | 0.00 | 0.00 | 0.00 | 23 | 1230.5 |
| 20260505034820 | 68 | 69 | 0.0 | 1.7 | 0.00 | 0.00 | 0.00 | 23 | 1230.7 |
| 20260505034317 | 68 | 103 | 0.9 | 1.7 | 0.00 | 0.00 | 0.00 | 23 | 1230.4 |
| 20260505033814 | 68 | 157 | 1.7 | 2.6 | 0.00 | 0.00 | 0.00 | 23 | 1230.5 |
| 20260505033311 | 68 | 283 | 0.9 | 2.6 | 0.00 | 0.00 | 0.00 | 23 | 1230.4 |
| 20260505032809 | 68 | 324 | 0.9 | 3.5 | 0.00 | 0.00 | 0.00 | 23 | 1230.4 |
| 20260505032305 | 68 | 16 | 0.9 | 2.6 | 0.00 | 0.00 | 0.00 | 23 | 1230.3 |
| 20260505031802 | 68 | 324 | 0.0 | 1.7 | 0.00 | 0.00 | 0.00 | 22 | 1230.1 |
| 20260505031258 | 68 | 1 | 0.0 | 1.7 | 0.00 | 0.00 | 0.00 | 22 | 1230.0 |
| 20260505030756 | 68 | 33 | 0.9 | 3.5 | 0.00 | 0.00 | 0.00 | 22 | 1230.1 |
| 20260505030252 | 69 | 296 | 2.6 | 4.3 | 0.00 | 0.00 | 0.00 | 22 | 1230.0 |
| 20260505025747 | 69 | 10 | 1.7 | 3.5 | 0.00 | 0.00 | 0.00 | 21 | 1230.0 |
| 20260505025246 | 69 | 5 | 2.6 | 5.2 | 0.00 | 0.00 | 0.00 | 21 | 1229.9 |
| 20260505024744 | 69 | 352 | 1.7 | 4.3 | 0.00 | 0.00 | 0.00 | 21 | 1229.8 |
| 20260505024241 | 69 | 23 | 1.7 | 7.0 | 0.00 | 0.00 | 0.00 | 21 | 1229.8 |
| 20260505023738 | 70 | 296 | 2.6 | 6.1 | 0.00 | 0.00 | 0.00 | 21 | 1229.7 |
| 20260505023235 | 70 | 353 | 2.6 | 5.2 | 0.00 | 0.00 | 0.00 | 20 | 1229.7 |
| 20260505022732 | 70 | 0 | 2.6 | 4.3 | 0.00 | 0.00 | 0.00 | 20 | 1229.7 |
| 20260505022229 | 70 | 348 | 2.6 | 6.1 | 0.00 | 0.00 | 0.00 | 20 | 1229.6 |
| 20260505021726 | 70 | 341 | 2.6 | 5.2 | 0.00 | 0.00 | 0.00 | 20 | 1229.7 |
| 20260505021223 | 70 | 286 | 1.7 | 4.3 | 0.00 | 0.00 | 0.00 | 20 | 1229.7 |
| 20260505020719 | 70 | 346 | 1.7 | 4.3 | 0.00 | 0.00 | 0.00 | 20 | 1229.6 |
| 20260505020214 | 71 | 310 | 1.7 | 4.3 | 0.00 | 0.00 | 0.00 | 20 | 1229.7 |
| 20260505015712 | 71 | 5 | 0.0 | 2.6 | 0.00 | 0.00 | 0.00 | 20 | 1229.2 |
| 20260505015209 | 71 | 75 | 1.7 | 4.3 | 0.00 | 0.00 | 0.00 | 19 | 1229.1 |
| 20260505014705 | 71 | 203 | 3.5 | 5.2 | 0.00 | 0.00 | 0.00 | 20 | 1229.1 |
| 20260505014203 | 71 | 342 | 2.6 | 4.3 | 0.00 | 0.00 | 0.00 | 19 | 1229.2 |
| 20260505013659 | 71 | 3 | 1.7 | 2.6 | 0.00 | 0.00 | 0.00 | 19 | 1229.1 |
| 20260505013157 | 72 | 344 | 1.7 | 3.5 | 0.00 | 0.00 | 0.00 | 19 | 1229.1 |
| 20260505012655 | 72 | 306 | 3.5 | 4.3 | 0.00 | 0.00 | 0.00 | 19 | 1228.9 |
| 20260505012152 | 72 | 358 | 1.7 | 4.3 | 0.00 | 0.00 | 0.00 | 19 | 1228.9 |
| 20260505011652 | 72 | 321 | 1.7 | 4.3 | 0.00 | 0.00 | 0.00 | 19 | 1228.6 |
| 20260505011150 | 72 | 17 | 1.7 | 3.5 | 0.00 | 0.00 | 0.00 | 19 | 1228.7 |
| 20260505010645 | 72 | 300 | 2.6 | 3.5 | 0.00 | 0.00 | 0.00 | 19 | 1228.7 |
| 20260505010142 | 73 | 190 | 1.7 | 5.2 | 0.00 | 0.00 | 0.00 | 19 | 1229.0 |
| 20260505005638 | 73 | 68 | 1.7 | 4.3 | 0.00 | 0.00 | 0.00 | 18 | 1228.9 |
| 20260505005135 | 73 | 302 | 1.7 | 3.5 | 0.00 | 0.00 | 0.00 | 18 | 1228.9 |
| 20260505004632 | 73 | 40 | 1.7 | 2.6 | 0.00 | 0.00 | 0.00 | 18 | 1228.7 |
| 20260505004129 | 73 | 309 | 3.5 | 4.3 | 0.00 | 0.00 | 0.00 | 18 | 1228.7 |
| 20260505003626 | 73 | 338 | 3.5 | 6.1 | 0.00 | 0.00 | 0.00 | 18 | 1229.0 |
| 20260505003124 | 73 | 82 | 1.7 | 5.2 | 0.00 | 0.00 | 0.00 | 18 | 1229.0 |
| 20260505002619 | 74 | 27 | 1.7 | 6.1 | 0.00 | 0.00 | 0.00 | 17 | 1229.1 |
| 20260505002118 | 74 | 326 | 1.7 | 6.1 | 0.00 | 0.00 | 0.00 | 17 | 1229.2 |
| 20260505001615 | 74 | 341 | 1.7 | 3.5 | 0.00 | 0.00 | 0.00 | 17 | 1229.0 |
| 20260505001112 | 74 | 320 | 2.6 | 4.3 | 0.00 | 0.00 | 0.00 | 16 | 1229.1 |
| 20260505000609 | 74 | 34 | 1.7 | 4.3 | 0.00 | 0.00 | 0.00 | 16 | 1229.2 |
| 20260505000107 | 74 | 269 | 3.5 | 4.3 | 0.00 | 0.00 | 0.00 | 16 | 1229.0 |
| 20260504235603 | 74 | 0 | 2.6 | 4.3 | 0.00 | 0.00 | 0.00 | 16 | 1229.0 |
| 20260504235100 | 74 | 27 | 3.5 | 6.1 | 0.00 | 0.00 | 0.00 | 16 | 1229.1 |
| 20260504234557 | 74 | 102 | 2.6 | 7.8 | 0.00 | 0.00 | 0.00 | 16 | 1229.0 |
| 20260504234054 | 74 | 246 | 1.7 | 4.3 | 0.00 | 0.00 | 0.00 | 15 | 1229.0 |
| 20260504233549 | 74 | 320 | 4.3 | 5.2 | 0.00 | 0.00 | 0.00 | 15 | 1229.1 |
| 20260504233046 | 74 | 189 | 0.0 | 6.1 | 0.00 | 0.00 | 0.00 | 15 | 1229.2 |
| 20260504232543 | 74 | 70 | 1.7 | 5.2 | 0.00 | 0.00 | 0.00 | 14 | 1229.3 |
| 20260504232041 | 75 | 338 | 1.7 | 4.3 | 0.00 | 0.00 | 0.00 | 14 | 1229.3 |
| 20260504231537 | 75 | 306 | 1.7 | 5.2 | 0.00 | 0.00 | 0.00 | 14 | 1229.2 |
| 20260504231033 | 75 | 34 | 1.7 | 4.3 | 0.00 | 0.00 | 0.00 | 14 | 1229.3 |
| 20260504230530 | 75 | 138 | 3.5 | 5.2 | 0.00 | 0.00 | 0.00 | 13 | 1229.4 |
| 20260504230029 | 75 | 304 | 4.3 | 5.2 | 0.00 | 0.00 | 0.00 | 13 | 1229.1 |
| 20260504225526 | 75 | 8 | 0.9 | 3.5 | 0.00 | 0.00 | 0.00 | 13 | 1229.3 |
| 20260504225023 | 75 | 306 | 1.7 | 4.3 | 0.00 | 0.00 | 0.00 | 13 | 1229.2 |
| 20260504224519 | 75 | 321 | 2.6 | 7.0 | 0.00 | 0.00 | 0.00 | 13 | 1229.3 |
| 20260504224017 | 75 | 6 | 3.5 | 4.3 | 0.00 | 0.00 | 0.00 | 13 | 1229.4 |
| 20260504223513 | 76 | 244 | 1.7 | 5.2 | 0.00 | 0.00 | 0.00 | 13 | 1229.3 |
| 20260504223009 | 76 | 303 | 1.7 | 10.4 | 0.00 | 0.00 | 0.00 | 13 | 1229.3 |
| 20260504222506 | 76 | 349 | 2.6 | 4.3 | 0.00 | 0.00 | 0.00 | 13 | 1229.4 |
| 20260504222003 | 77 | 16 | 0.0 | 4.3 | 0.00 | 0.00 | 0.00 | 13 | 1229.7 |
| 20260504221500 | 76 | 100 | 1.7 | 3.5 | 0.00 | 0.00 | 0.00 | 13 | 1229.7 |
| 20260504220958 | 76 | 91 | 1.7 | 4.3 | 0.00 | 0.00 | 0.00 | 13 | 1229.9 |
| 20260504220454 | 77 | 81 | 1.7 | 5.2 | 0.00 | 0.00 | 0.00 | 13 | 1229.7 |
| 20260504215951 | 77 | 69 | 2.6 | 5.2 | 0.00 | 0.00 | 0.00 | 12 | 1229.9 |
| 20260504215447 | 76 | 27 | 2.6 | 7.0 | 0.00 | 0.00 | 0.00 | 12 | 1229.8 |
| 20260504214944 | 77 | 70 | 2.6 | 5.2 | 0.00 | 0.00 | 0.00 | 12 | 1229.9 |
| 20260504214440 | 77 | 10 | 1.7 | 3.5 | 0.00 | 0.00 | 0.00 | 13 | 1230.1 |
| 20260504213937 | 77 | 322 | 2.6 | 6.1 | 0.00 | 0.00 | 0.00 | 13 | 1230.3 |
| 20260504213433 | 78 | 54 | 1.7 | 5.2 | 0.00 | 0.00 | 0.00 | 12 | 1230.1 |
| 20260504212931 | 78 | 126 | 0.9 | 3.5 | 0.00 | 0.00 | 0.00 | 12 | 1230.0 |
| 20260504212426 | 79 | 338 | 1.7 | 5.2 | 0.00 | 0.00 | 0.00 | 12 | 1229.9 |
| 20260504211925 | 78 | 61 | 2.6 | 3.5 | 0.00 | 0.00 | 0.00 | 13 | 1230.1 |
| 20260504211420 | 78 | 312 | 5.2 | 5.2 | 0.00 | 0.00 | 0.00 | 13 | 1230.3 |
| 20260504210918 | 78 | 357 | 0.0 | 3.5 | 0.00 | 0.00 | 0.00 | 13 | 1230.4 |
| 20260504210415 | 78 | 76 | 1.7 | 3.5 | 0.00 | 0.00 | 0.00 | 12 | 1230.6 |
| 20260504205912 | 78 | 83 | 2.6 | 7.8 | 0.00 | 0.00 | 0.00 | 12 | 1230.7 |
| 20260504205410 | 78 | 9 | 1.7 | 4.3 | 0.00 | 0.00 | 0.00 | 13 | 1230.8 |
| 20260504204908 | 79 | 70 | 4.3 | 6.1 | 0.00 | 0.00 | 0.00 | 13 | 1231.3 |
| 20260504204406 | 80 | 50 | 1.7 | 3.5 | 0.00 | 0.00 | 0.00 | 14 | 1231.2 |
| 20260504203905 | 79 | 186 | 5.2 | 5.2 | 0.00 | 0.00 | 0.00 | 14 | 1231.0 |
| 20260504203401 | 79 | 181 | 2.6 | 7.8 | 0.00 | 0.00 | 0.00 | 13 | 1231.5 |
| 20260504202857 | 79 | 60 | 1.7 | 7.8 | 0.00 | 0.00 | 0.00 | 14 | 1231.5 |
| 20260504202354 | 78 | 188 | 0.9 | 4.3 | 0.00 | 0.00 | 0.00 | 15 | 1231.4 |
| 20260504201851 | 78 | 284 | 3.5 | 5.2 | 0.00 | 0.00 | 0.00 | 15 | 1231.8 |
| 20260504201348 | 77 | 201 | 1.7 | 6.1 | 0.00 | 0.00 | 0.00 | 16 | 1231.5 |
| 20260504200846 | 78 | 197 | 3.5 | 9.6 | 0.00 | 0.00 | 0.00 | 16 | 1231.8 |
| 20260504200342 | 78 | 340 | 0.9 | 3.5 | 0.00 | 0.00 | 0.00 | 16 | 1231.9 |
| 20260504195839 | 77 | 1 | 0.9 | 2.6 | 0.00 | 0.00 | 0.00 | 16 | 1232.0 |
| 20260504195334 | 76 | 322 | 2.6 | 5.2 | 0.00 | 0.00 | 0.00 | 17 | 1232.0 |
| 20260504194831 | 76 | 318 | 3.5 | 5.2 | 0.00 | 0.00 | 0.00 | 16 | 1232.2 |
| 20260504194327 | 76 | 323 | 4.3 | 5.2 | 0.00 | 0.00 | 0.00 | 16 | 1232.4 |
| 20260504193823 | 76 | 338 | 0.0 | 3.5 | 0.00 | 0.00 | 0.00 | 17 | 1232.5 |
| 20260504193321 | 75 | 177 | 2.6 | 2.6 | 0.00 | 0.00 | 0.00 | 17 | 1232.2 |
| 20260504192819 | 75 | 336 | 3.5 | 5.2 | 0.00 | 0.00 | 0.00 | 17 | 1232.6 |
| 20260504192317 | 74 | 56 | 1.7 | 7.0 | 0.00 | 0.00 | 0.00 | 18 | 1232.5 |
| 20260504191816 | 74 | 335 | 5.2 | 8.7 | 0.00 | 0.00 | 0.00 | 17 | 1232.7 |
| 20260504191313 | 76 | 35 | 0.0 | 4.3 | 0.00 | 0.00 | 0.00 | 17 | 1232.6 |
| 20260504190808 | 75 | 341 | 1.7 | 4.3 | 0.00 | 0.00 | 0.00 | 18 | 1232.9 |
| 20260504190304 | 75 | 231 | 4.3 | 6.1 | 0.00 | 0.00 | 0.00 | 18 | 1232.6 |
| 20260504185801 | 75 | 76 | 0.9 | 7.0 | 0.00 | 0.00 | 0.00 | 18 | 1232.9 |
| 20260504185258 | 74 | 250 | 1.7 | 3.5 | 0.00 | 0.00 | 0.00 | 19 | 1232.8 |
| 20260504184754 | 74 | 12 | 2.6 | 4.3 | 0.00 | 0.00 | 0.00 | 18 | 1233.2 |
| 20260504184250 | 74 | 163 | 1.7 | 8.7 | 0.00 | 0.00 | 0.00 | 19 | 1233.4 |